TimeEST,TemperatureF,Dew PointF,Humidity,Sea Level PressureIn,VisibilityMPH,Wind Direction,Wind SpeedMPH,Gust SpeedMPH,PrecipitationIn,Events,Conditions,WindDirDegrees,DateUTC
12:52 AM,36.0,26.1,67,29.96,10.0,SSW,6.9,-,N/A,,Partly Cloudy,200,2012-01-06 05:52:00
1:52 AM,36.0,26.1,67,29.96,10.0,SSW,4.6,-,N/A,,Partly Cloudy,200,2012-01-06 06:52:00
2:52 AM,35.1,27.0,72,29.96,10.0,SSW,5.8,-,N/A,,Mostly Cloudy,200,2012-01-06 07:52:00
3:52 AM,34.0,28.0,79,29.95,10.0,SW,5.8,-,N/A,,Overcast,220,2012-01-06 08:52:00
4:52 AM,36.0,28.0,73,29.94,10.0,SSW,4.6,-,N/A,,Overcast,200,2012-01-06 09:52:00
5:52 AM,37.0,27.0,67,29.96,10.0,Calm,Calm,-,N/A,,Overcast,0,2012-01-06 10:52:00
6:52 AM,37.0,28.9,73,29.96,10.0,South,5.8,-,N/A,,Mostly Cloudy,190,2012-01-06 11:52:00
7:52 AM,37.0,28.9,73,29.96,10.0,South,6.9,-,N/A,,Mostly Cloudy,190,2012-01-06 12:52:00
8:52 AM,39.0,28.9,67,29.95,10.0,South,8.1,-,N/A,,Mostly Cloudy,190,2012-01-06 13:52:00
9:52 AM,43.0,28.9,58,29.96,10.0,South,6.9,-,N/A,,Mostly Cloudy,180,2012-01-06 14:52:00
10:52 AM,48.0,30.0,50,29.94,10.0,South,10.4,-,N/A,,Mostly Cloudy,180,2012-01-06 15:52:00
11:52 AM,52.0,30.9,45,29.90,10.0,South,11.5,-,N/A,,Mostly Cloudy,180,2012-01-06 16:52:00
12:52 PM,57.9,30.9,36,29.87,10.0,South,8.1,-,N/A,,Mostly Cloudy,190,2012-01-06 17:52:00
2:52 PM,63.0,28.9,28,29.85,10.0,SSW,11.5,-,N/A,,Scattered Clouds,210,2012-01-06 19:52:00
3:52 PM,57.9,30.9,36,29.83,10.0,SSW,9.2,-,N/A,,Scattered Clouds,200,2012-01-06 20:52:00
4:52 PM,60.1,28.9,31,29.85,10.0,SSW,10.4,-,N/A,,Partly Cloudy,210,2012-01-06 21:52:00
5:52 PM,57.9,28.9,33,29.86,10.0,SSW,11.5,-,N/A,,Clear,210,2012-01-06 22:52:00
6:52 PM,53.1,30.0,41,29.86,10.0,SSW,8.1,-,N/A,,Clear,200,2012-01-06 23:52:00
7:52 PM,51.1,30.9,46,29.85,8.0,South,9.2,-,N/A,,Clear,190,2012-01-07 00:52:00
8:52 PM,48.9,30.9,50,29.84,10.0,South,8.1,-,N/A,,Clear,190,2012-01-07 01:52:00
9:52 PM,48.0,30.0,50,29.85,10.0,Calm,Calm,-,N/A,,Clear,0,2012-01-07 02:52:00
10:52 PM,48.0,30.0,50,29.84,9.0,South,6.9,-,N/A,,Clear,180,2012-01-07 03:52:00
11:52 PM,50.0,30.0,46,29.84,10.0,SSW,6.9,-,N/A,,Clear,200,2012-01-07 04:52:00